Regional Weather Roundup
Issued by NWS

Home | Current Version | Previous Version | Graphics & Text | Print | Product List | Glossary On
Versions: 1 2 3 4 5 6 7 8 9 10 11 12 13 14 15 16 17 18 19 20 21 22 23 24 25 26 27 28 29 30 31 32 33 34 35 36 37 38 39 40 41 42 43 44 45 46 47 48 49 50
000
ASUS44 KMEG 201200
RWRTN
TENNESSEE HOURLY STATE WEATHER ROUNDUP
NATIONAL WEATHER SERVICE MEMPHIS TN
700 AM CDT WED AUG 20 2014

TNZ002-004-019-021-049-052-054-088>092-201300-
WEST TENNESSEE

CITY           SKY/WX    TMP DP  RH WIND       PRES   REMARKS
MEMPHIS INTL   PTCLDY    77  73  87 SW5       29.98R
NWS MEMPHIS      N/A     77 N/A N/A MISG        N/A
JACKSON        CLEAR     78  74  87 SW8       29.96R
DYERSBURG      CLEAR     77  66  69 CALM      29.95R
UNION CITY     CLEAR     75  75 100 S5        29.92R
PARIS          CLEAR     73  73 100 SW8       29.94R
SAVANNAH       CLEAR     75  75 100 S3        29.99R
$$

TNZ008-025-027-028-033-062-065-066-201300-
NORTH MIDDLE TENNESSEE

CITY           SKY/WX    TMP DP  RH WIND       PRES   REMARKS
NASHVILLE      PTCLDY    79  75  87 SW5       29.96R
CLARKSVILLE    CLEAR     74  73  97 S3        29.93R FOG
COOKEVILLE     MOSUNNY   73  72  94 CALM      29.99R
CROSSVILLE     MOSUNNY   74  69  85 CALM      30.04S HAZE
$$

TNZ061-075-076-078-094-096-097-201300-
SOUTH MIDDLE TENNESSEE

CITY           SKY/WX    TMP DP  RH WIND       PRES   REMARKS
WINCHESTER     PTCLDY    75  73  94 W3        30.01R
SHELBYVILLE    CLEAR     73  73 100 S5        30.00R
$$

TNZ017-018-042-046-047-201300-
NORTHEAST TENNESSEE

CITY           SKY/WX    TMP DP  RH WIND       PRES   REMARKS
TRI CITIES     TSTM      69  66  90 VRB6      30.04R VSB 1
ELIZABETHTON   CLOUDY    68  66  94 CALM      30.04R
$$

TNZ012-013-036-069-073-074-201300-
CENTRAL EAST TENNESSEE

CITY           SKY/WX    TMP DP  RH WIND       PRES   REMARKS
KNOXVILLE      MOSUNNY   71  68  90 CALM      29.99R
OAK RIDGE      CLOUDY    72  71  97 CALM      30.01R FOG
GATLINBURG     PTSUNNY   66  64  94 CALM      30.00S
$$

TNZ083-085-099-201300-
SOUTHEAST TENNESSEE

CITY           SKY/WX    TMP DP  RH WIND       PRES   REMARKS
CHATTANOOGA    MOSUNNY   74  70  87 CALM      30.01R
$$

SKY/WX REPORTED AS FAIR MEANS FEW OR NO CLOUDS BELOW
12 THOUSAND FEET.



USA.gov is the U.S. government's official web portal to all federal, state and local government web resources and services.